Hourly Data Report for December 07, 2021

WINNIPEG THE FORKS
MANITOBA
Current Station Operator: ECCC - MSC

49°53'18.008" N
97°07'46.007" W
230.00 m
5023262
71579
XWN

Download Data

Hourly Data (December 2021)
Hourly Data Report for December 7, 2021
TIME
LST
Temp Definition
°C
Dew Point Definition
°C
Rel Hum Definition
%
Precip. Amount Definition
mm

Wind Dir Definition
10's deg

Wind Spd Definition
km/h
Visibility Definition
km
Stn Press Definition
kPa
Hmdx Definition


Wind Chill Definition


Weather Definition


00:00 -19.5 -23.5 70 0.0 22 6   99.06   -24 LegendNANA
01:00 -19.6 -23.3 72 0.0 21 4   99.00   -23 LegendNANA
02:00 -19.5 -23.2 72 0.0 21 6   98.95   -24 LegendNANA
03:00 -19.5 -23.1 73 0.0 22 9   98.96   -26 LegendNANA
04:00 -19.4 -23.0 73 0.0 21 7   98.91   -25 LegendNANA
05:00 -19.6 -23.1 74 0.0 20 7   98.87   -25 LegendNANA
06:00 -19.6 -23.0 74 0.0 21 7   98.80   -25 LegendNANA
07:00 -19.1 -22.5 74 0.0 21 7   98.75   -25 LegendNANA
08:00 -19.2 -22.6 74 0.0 21 8   98.68   -25 LegendNANA
09:00 -19.3 -22.9 73 0.0 21 11   98.67   -27 LegendNANA
10:00 -18.2 -22.2 70 0.0 20 11   98.67   -25 LegendNANA
11:00 -17.3 -21.6 69 0.0 21 10   98.63   -24 LegendNANA
12:00 -16.2 -20.7 68 0.0 21 9   98.55   -22 LegendNANA
13:00 -15.1 -19.9 67 0.0 20 9   98.44   -21 LegendNANA
14:00 -14.2 -19.0 67 0.0 20 9   98.36   -20 LegendNANA
15:00 -13.1 -17.1 72 0.0 20 8   98.28   -18 LegendNANA
16:00 -12.3 -15.6 76 0.0 19 6   98.27   -16 LegendNANA
17:00 -12.2 -15.1 79 0.0 21 6   98.27   -16 LegendNANA
18:00 -12.3 -15.1 80 0.0 21 7   98.29   -17 LegendNANA
19:00 -12.0 -14.8 79 0.0 23 4   98.33   -15 LegendNANA
20:00 -12.6 -15.7 78 0.0 33 8   98.35   -18 LegendNANA
21:00 -13.4 -16.4 78 0.0 33 7   98.37   -18 LegendNANA
22:00 -14.7 -18.1 75 0.0 33 6   98.41   -19 LegendNANA
23:00 -16.1 -19.5 75 0.0 35 7   98.44   -21 LegendNANA

Notes on Data Quality.

Legend

  • E = Estimated
  • M = Missing
  • NA = Not Available*
  • [empty] = Indicates an unobserved value
Date modified: